Date String (YYYY-MM-DD hh:mm:ss) UTC,Instrument flags,absolute air pressure of the measurement (hPa),sample flow rate (lpm),inlet stack bypass flow (lpm),air temperature of the measurement (°C),ambient temperature measured by the external sensor (°C),aerosol sample conditioner tube jacket temperature (°C),OPC LED temperature (°C),internal box temperature (°C),relative humidity of the measurement (%),span deviation,mass concentration of particles derived from Lorenz-Mie calculation of OPC scattering (μg/m³),mass concentration of particles derived from Lorenz-Mie calculation of OPC scattering (μg/m³),mass concentration of particles derived from Lorenz-Mie calculation of OPC scattering (μg/m³)
DateTimeUTC,F1_M11,P_M11,Q1_M11,Q2_M11,T1_M11,T2_M11,T3_M11,T4_M11,T5_M11,U1_M11,ZSPAN_M11,X0_M11,X2_M11,X1_M11
2024-02-27 13:00:00,SystemResetWarning,0809.6,5.00,000.00,020.3,019.4,000.0,028.9,022.0,19.5,0000.0,0007.08,0001.97,0000.72
2024-02-27 13:01:00,SystemResetWarning,0809.6,5.01,000.00,020.3,019.4,000.0,028.8,021.9,19.5,0000.0,0006.82,0002.03,0000.73
2024-02-27 13:02:00,SystemResetWarning,0809.6,5.01,000.00,020.3,019.4,000.0,028.8,022.0,19.4,0000.0,0006.92,0002.10,0000.72
2024-02-27 13:03:00,SystemResetWarning,0809.6,5.00,000.00,020.3,019.4,000.0,028.8,021.9,19.3,0000.0,0006.88,0002.11,0000.71
2024-02-27 13:04:00,SystemResetWarning,0809.7,5.00,000.00,020.2,019.4,000.0,028.8,021.9,19.1,0000.0,0006.70,0002.09,0000.69
2024-02-27 13:05:00,SystemResetWarning,0809.8,4.99,000.00,020.2,019.4,000.0,028.8,021.9,19.1,0000.0,0006.69,0002.07,0000.67
2024-02-27 13:06:00,SystemResetWarning,0809.9,5.00,000.00,020.2,019.4,000.0,028.8,021.9,19.4,0000.0,0006.39,0002.06,0000.67
2024-02-27 13:07:00,SystemResetWarning,0810.0,5.00,000.00,020.2,019.4,000.0,028.8,021.9,19.3,0000.0,0005.93,0001.94,0000.65
2024-02-27 13:08:00,SystemResetWarning,0810.1,5.00,000.00,020.2,019.3,000.0,028.7,021.9,19.1,0000.0,0005.41,0001.88,0000.64
2024-02-27 13:09:00,SystemResetWarning,0810.1,5.00,000.00,020.2,019.3,000.0,028.7,021.9,19.2,0000.0,0006.41,0001.90,0000.62
2024-02-27 13:10:00,SystemResetWarning,0810.2,5.00,000.00,020.2,019.3,000.0,028.7,021.9,18.9,0000.0,0006.63,0001.95,0000.62
2024-02-27 13:11:00,SystemResetWarning,0810.2,5.00,000.00,020.2,019.3,000.0,028.7,021.9,18.6,0000.0,0006.59,0001.97,0000.61
2024-02-27 13:12:00,SystemResetWarning,0810.3,5.00,000.00,020.2,019.3,000.0,028.7,021.9,18.9,0000.0,0006.02,0001.91,0000.60
2024-02-27 13:13:00,SystemResetWarning,0810.2,5.00,000.00,020.2,019.3,000.0,028.7,021.9,18.9,0000.0,0006.07,0001.91,0000.60
2024-02-27 13:14:00,SystemResetWarning,0810.3,5.00,000.00,020.1,019.3,000.0,028.7,021.9,18.9,0000.0,0006.41,0001.92,0000.61
2024-02-27 13:15:00,SystemResetWarning,0810.4,5.00,000.00,020.1,019.3,000.0,028.7,021.8,18.9,0000.0,0007.26,0002.01,0000.62
2024-02-27 13:16:00,SystemResetWarning,0810.4,5.00,000.00,020.1,019.3,000.0,028.6,021.8,18.9,0000.0,0007.33,0002.05,0000.62
2024-02-27 13:17:00,SystemResetWarning,0810.5,5.00,000.00,020.1,019.3,000.0,028.6,021.8,18.8,0000.0,0007.19,0002.00,0000.62
2024-02-27 13:18:00,SystemResetWarning,0810.5,5.00,000.00,020.1,019.3,000.0,028.6,021.8,19.0,0000.0,0007.36,0002.10,0000.63
2024-02-27 13:19:00,SystemResetWarning,0810.6,5.01,000.00,020.1,019.3,000.0,028.6,021.9,19.2,0000.0,0007.15,0002.15,0000.64
2024-02-27 13:20:00,SystemResetWarning,0810.7,5.00,000.00,020.1,019.3,000.0,028.6,021.8,19.3,0000.0,0006.23,0002.15,0000.66
2024-02-27 13:21:00,SystemResetWarning,0810.7,5.00,000.00,020.1,019.3,000.0,028.6,021.9,19.4,0000.0,0005.94,0002.09,0000.66
2024-02-27 13:22:00,SystemResetWarning,0810.8,5.00,000.00,020.1,019.3,000.0,028.6,021.9,19.5,0000.0,0006.20,0002.06,0000.65
2024-02-27 13:23:00,SystemResetWarning,0811.0,5.00,000.00,020.1,019.3,000.0,028.6,021.9,19.5,0000.0,0006.10,0001.98,0000.65
2024-02-27 13:24:00,SystemResetWarning,0811.1,5.00,000.00,020.1,019.3,000.0,028.6,021.9,19.6,0000.0,0006.40,0001.95,0000.64
2024-02-27 13:25:00,SystemResetWarning,0811.1,5.00,000.00,020.1,019.3,000.0,028.6,021.9,19.8,0000.0,0006.01,0001.90,0000.64
2024-02-27 13:26:00,SystemResetWarning,0811.0,5.00,000.00,020.1,019.3,000.0,028.6,021.9,20.6,0000.0,0005.17,0001.82,0000.63
2024-02-27 13:27:00,SystemResetWarning,0810.9,5.00,000.00,020.1,019.3,000.0,028.6,021.9,22.7,0000.0,0005.07,0001.77,0000.64
2024-02-27 13:28:00,SystemResetWarning,0811.0,4.99,000.00,020.1,019.3,000.0,028.6,021.9,23.4,0000.0,0005.44,0001.75,0000.64
2024-02-27 13:29:00,SystemResetWarning,0811.1,5.00,000.00,020.1,019.3,000.0,028.6,021.9,23.7,0000.0,0007.03,0001.68,0000.63
2024-02-27 13:30:00,SystemResetWarning,0811.2,5.01,000.00,020.1,019.3,000.0,028.6,021.9,23.8,0000.0,0007.47,0001.62,0000.63
2024-02-27 13:31:00,SystemResetWarning,0811.1,5.01,000.00,020.1,019.3,000.0,028.6,021.8,24.0,0000.0,0007.44,0001.60,0000.62
2024-02-27 13:32:00,SystemResetWarning,0811.2,5.00,000.00,020.1,019.3,000.0,028.5,021.8,24.1,0000.0,0007.53,0001.59,0000.61
2024-02-27 13:33:00,SystemResetWarning,0811.1,5.00,000.00,020.1,019.3,000.0,028.5,021.8,24.2,0000.0,0007.50,0001.63,0000.62
2024-02-27 13:34:00,SystemResetWarning,0811.1,4.99,000.00,020.1,019.3,000.0,028.5,021.8,24.3,0000.0,0007.79,0001.72,0000.64
2024-02-27 13:35:00,SystemResetWarning,0811.1,4.99,000.00,020.1,019.3,000.0,028.5,021.8,24.3,0000.0,0008.41,0001.82,0000.64
2024-02-27 13:36:00,SystemResetWarning,0811.1,5.00,000.00,020.1,019.3,000.0,028.5,021.8,24.3,0000.0,0008.80,0001.85,0000.63
2024-02-27 13:37:00,SystemResetWarning,0811.1,5.00,000.00,020.1,019.3,000.0,028.5,021.8,24.3,0000.0,0009.50,0001.88,0000.63
2024-02-27 13:38:00,SystemResetWarning,0811.1,5.00,000.00,020.1,019.3,000.0,028.5,021.8,24.3,0000.0,0010.07,0001.85,0000.62
2024-02-27 13:39:00,SystemResetWarning,0811.1,4.99,000.00,020.1,019.3,000.0,028.5,021.8,24.3,0000.0,0010.23,0001.84,0000.60
2024-02-27 13:40:00,SystemResetWarning,0811.1,5.00,000.00,020.1,019.3,000.0,028.5,021.8,24.2,0000.0,0009.33,0001.78,0000.56
2024-02-27 13:41:00,SystemResetWarning,0811.2,5.01,000.00,020.1,019.3,000.0,028.5,021.8,24.2,0000.0,0008.94,0001.69,0000.53
2024-02-27 13:42:00,SystemResetWarning,0811.1,5.02,000.00,020.1,019.3,000.0,028.5,021.7,24.2,0000.0,0008.69,0001.55,0000.50
2024-02-27 13:43:00,SystemResetWarning,0811.1,5.00,000.00,020.0,019.3,000.0,028.4,021.7,24.1,0000.0,0008.56,0001.44,0000.46
2024-02-27 13:44:00,SystemResetWarning,0811.1,5.00,000.00,020.0,019.2,000.0,028.4,021.7,24.1,0000.0,0008.68,0001.34,0000.42
2024-02-27 13:45:00,SystemResetWarning,0811.1,5.00,000.00,020.0,019.2,000.0,028.4,021.7,24.1,0000.0,0008.50,0001.19,0000.38
2024-02-27 13:46:00,SystemResetWarning,0811.1,5.00,000.00,020.0,019.2,000.0,028.4,021.7,24.1,0000.0,0007.91,0000.99,0000.35
2024-02-27 13:47:00,SystemResetWarning,0811.1,5.00,000.00,020.0,019.2,000.0,028.4,021.7,24.0,0000.0,0007.41,0000.88,0000.32
2024-02-27 13:48:00,SystemResetWarning,0811.0,5.00,000.00,020.0,019.2,000.0,028.4,021.6,24.0,0000.0,0006.08,0000.76,0000.28
2024-02-27 13:49:00,SystemResetWarning,0810.9,5.00,000.00,020.0,019.2,000.0,028.4,021.6,24.0,0000.0,0004.82,0000.66,0000.24
2024-02-27 13:50:00,SystemResetWarning,0810.7,5.00,000.00,020.0,019.2,000.0,028.4,021.6,23.9,0000.0,0004.10,0000.58,0000.23
2024-02-27 13:51:00,SystemResetWarning,0810.6,5.00,000.00,019.9,019.1,000.0,028.4,021.6,23.9,0000.0,0003.83,0000.52,0000.21
2024-02-27 13:52:00,SystemResetWarning,0810.6,5.01,000.00,019.9,019.1,000.0,028.3,021.6,23.8,0000.0,0003.67,0000.51,0000.20
2024-02-27 13:53:00,SystemResetWarning,0810.6,5.01,000.00,019.9,019.1,000.0,028.3,021.6,23.8,0000.0,0003.72,0000.50,0000.19
2024-02-27 13:54:00,SystemResetWarning,0810.6,5.00,000.00,019.9,019.1,000.0,028.3,021.6,23.7,0000.0,0003.56,0000.48,0000.18
2024-02-27 13:55:00,SystemResetWarning,0810.6,4.99,000.00,019.9,019.1,000.0,028.3,021.6,23.6,0000.0,0002.85,0000.44,0000.17
2024-02-27 13:56:00,SystemResetWarning,0810.6,4.99,000.00,019.9,019.1,000.0,028.3,021.6,23.6,0000.0,0002.62,0000.42,0000.16
2024-02-27 13:57:00,SystemResetWarning,0810.6,5.00,000.00,019.9,019.1,000.0,028.3,021.5,23.7,0000.0,0001.45,0000.41,0000.15
2024-02-27 13:58:00,SystemResetWarning,0810.6,5.00,000.00,019.9,019.1,000.0,028.3,021.5,23.7,0000.0,0001.33,0000.39,0000.14
2024-02-27 13:59:00,SystemResetWarning,0810.6,5.01,000.00,019.9,019.1,000.0,028.3,021.5,23.6,0000.0,0001.31,0000.39,0000.14
